TimeCDT,TemperatureF,Dew PointF,Humidity,Sea Level PressureIn,VisibilityMPH,Wind Direction,Wind SpeedMPH,Gust SpeedMPH,PrecipitationIn,Events,Conditions,WindDirDegrees,DateUTC
12:14 AM,56.1,50.2,80,30.19,10.0,Calm,Calm,-,N/A,,Scattered Clouds,0,2013-08-14 05:14:00
12:34 AM,54.5,49.5,83,30.19,10.0,Calm,Calm,-,N/A,,Scattered Clouds,0,2013-08-14 05:34:00
12:54 AM,54.1,49.5,84,30.20,10.0,Calm,Calm,-,N/A,,Clear,0,2013-08-14 05:54:00
1:14 AM,53.8,49.1,84,30.20,10.0,Calm,Calm,-,N/A,,Clear,0,2013-08-14 06:14:00
1:34 AM,54.7,49.5,83,30.20,10.0,Calm,Calm,-,N/A,,Mostly Cloudy,0,2013-08-14 06:34:00
1:54 AM,54.0,49.5,85,30.19,10.0,Calm,Calm,-,N/A,,Mostly Cloudy,0,2013-08-14 06:54:00
2:14 AM,53.8,50.0,87,30.19,10.0,Calm,Calm,-,N/A,,Mostly Cloudy,0,2013-08-14 07:14:00
2:34 AM,54.1,50.0,86,30.20,10.0,Calm,Calm,-,N/A,,Mostly Cloudy,0,2013-08-14 07:34:00
2:54 AM,54.5,50.0,85,30.20,10.0,Calm,Calm,-,N/A,,Scattered Clouds,0,2013-08-14 07:54:00
3:14 AM,55.4,50.4,83,30.20,10.0,Calm,Calm,-,N/A,,Scattered Clouds,0,2013-08-14 08:14:00
3:34 AM,54.9,50.4,85,30.20,10.0,Calm,Calm,-,N/A,,Mostly Cloudy,0,2013-08-14 08:34:00
3:54 AM,53.8,49.5,85,30.20,10.0,Calm,Calm,-,N/A,,Scattered Clouds,0,2013-08-14 08:54:00
4:14 AM,53.2,49.5,87,30.20,10.0,Calm,Calm,-,N/A,,Clear,0,2013-08-14 09:14:00
4:34 AM,51.4,47.8,87,30.20,10.0,Calm,Calm,-,N/A,,Clear,0,2013-08-14 09:34:00
4:54 AM,51.8,48.4,88,30.21,10.0,Calm,Calm,-,N/A,,Clear,0,2013-08-14 09:54:00
5:14 AM,51.4,48.2,89,30.20,10.0,Calm,Calm,-,N/A,,Clear,0,2013-08-14 10:14:00
5:34 AM,51.4,48.0,88,30.20,10.0,Calm,Calm,-,N/A,,Clear,0,2013-08-14 10:34:00
5:54 AM,51.3,48.2,89,30.20,10.0,Calm,Calm,-,N/A,,Clear,0,2013-08-14 10:54:00
6:14 AM,50.2,47.5,90,30.20,10.0,Calm,Calm,-,N/A,,Clear,0,2013-08-14 11:14:00
6:34 AM,49.6,46.6,89,30.20,10.0,Calm,Calm,-,N/A,,Clear,0,2013-08-14 11:34:00
6:54 AM,49.8,47.1,90,30.21,10.0,Calm,Calm,-,N/A,,Scattered Clouds,0,2013-08-14 11:54:00
7:14 AM,51.4,48.4,89,30.21,10.0,Calm,Calm,-,N/A,,Clear,0,2013-08-14 12:14:00
7:34 AM,54.0,50.4,88,30.21,10.0,Calm,Calm,-,N/A,,Clear,0,2013-08-14 12:34:00
7:54 AM,56.3,52.3,87,30.21,10.0,Calm,Calm,-,N/A,,Clear,0,2013-08-14 12:54:00
8:14 AM,59.0,53.1,81,30.20,10.0,Calm,Calm,-,N/A,,Clear,0,2013-08-14 13:14:00
8:34 AM,61.2,54.7,79,30.21,10.0,Calm,Calm,-,N/A,,Clear,0,2013-08-14 13:34:00
8:54 AM,63.5,54.9,73,30.21,10.0,Calm,Calm,-,N/A,,Clear,0,2013-08-14 13:54:00
9:14 AM,64.2,54.9,72,30.21,10.0,Calm,Calm,-,N/A,,Clear,0,2013-08-14 14:14:00
9:34 AM,65.5,55.4,70,30.21,10.0,Calm,Calm,-,N/A,,Clear,0,2013-08-14 14:34:00
9:54 AM,67.5,53.4,61,30.21,10.0,WSW,3.5,-,N/A,,Clear,250,2013-08-14 14:54:00
10:14 AM,67.6,53.4,60,30.21,10.0,Calm,Calm,-,N/A,,Scattered Clouds,0,2013-08-14 15:14:00
10:34 AM,67.6,54.0,61,30.21,10.0,Calm,Calm,-,N/A,,Scattered Clouds,0,2013-08-14 15:34:00
10:54 AM,69.3,54.1,59,30.21,10.0,Calm,Calm,-,N/A,,Clear,0,2013-08-14 15:54:00
11:14 AM,70.2,52.5,53,30.21,10.0,West,6.9,-,N/A,,Scattered Clouds,270,2013-08-14 16:14:00
11:34 AM,72.5,51.6,48,30.21,10.0,WSW,6.9,-,N/A,,Scattered Clouds,250,2013-08-14 16:34:00
11:54 AM,71.4,51.1,49,30.21,10.0,West,9.2,-,N/A,,Scattered Clouds,260,2013-08-14 16:54:00
12:14 PM,74.1,51.8,46,30.20,10.0,West,8.1,-,N/A,,Scattered Clouds,260,2013-08-14 17:14:00
12:34 PM,71.2,50.7,48,30.20,10.0,WSW,4.6,-,N/A,,Scattered Clouds,250,2013-08-14 17:34:00
12:54 PM,71.4,50.0,47,30.19,10.0,West,8.1,-,N/A,,Mostly Cloudy,280,2013-08-14 17:54:00
1:14 PM,73.8,50.7,44,30.19,10.0,West,8.1,-,N/A,,Overcast,260,2013-08-14 18:14:00
1:34 PM,73.6,49.6,43,30.18,10.0,WSW,6.9,-,N/A,,Scattered Clouds,250,2013-08-14 18:34:00
1:54 PM,75.0,48.2,39,30.17,10.0,South,4.6,-,N/A,,Scattered Clouds,190,2013-08-14 18:54:00
2:54 PM,74.8,47.5,38,30.16,10.0,SW,4.6,-,N/A,,Clear,220,2013-08-14 19:54:00
3:14 PM,74.7,46.4,37,30.16,10.0,WSW,5.8,-,N/A,,Scattered Clouds,240,2013-08-14 20:14:00
3:34 PM,74.3,47.7,39,30.15,10.0,SW,6.9,-,N/A,,Scattered Clouds,230,2013-08-14 20:34:00
3:54 PM,75.7,47.8,37,30.15,10.0,SW,5.8,-,N/A,,Mostly Cloudy,220,2013-08-14 20:54:00
4:14 PM,75.4,46.6,36,30.15,10.0,SSW,6.9,-,N/A,,Scattered Clouds,210,2013-08-14 21:14:00
4:34 PM,75.4,45.3,34,30.15,10.0,West,6.9,-,N/A,,Clear,260,2013-08-14 21:34:00
4:54 PM,75.4,46.2,35,30.15,10.0,WSW,5.8,-,N/A,,Scattered Clouds,240,2013-08-14 21:54:00
5:14 PM,74.3,46.8,37,30.14,10.0,WSW,6.9,-,N/A,,Clear,250,2013-08-14 22:14:00
5:34 PM,74.3,47.1,38,30.14,10.0,WSW,4.6,-,N/A,,Clear,240,2013-08-14 22:34:00
5:54 PM,74.3,47.1,38,30.14,10.0,SW,3.5,-,N/A,,Clear,230,2013-08-14 22:54:00
6:14 PM,73.4,46.2,38,30.13,10.0,SW,5.8,-,N/A,,Clear,220,2013-08-14 23:14:00
6:34 PM,73.4,47.8,40,30.13,10.0,SSW,4.6,-,N/A,,Clear,210,2013-08-14 23:34:00
6:54 PM,72.9,48.0,41,30.13,10.0,SSW,4.6,-,N/A,,Clear,210,2013-08-14 23:54:00
7:14 PM,72.5,49.1,44,30.12,10.0,SW,4.6,-,N/A,,Clear,220,2013-08-15 00:14:00
7:34 PM,70.9,49.5,47,30.12,10.0,Calm,Calm,-,N/A,,Clear,0,2013-08-15 00:34:00
7:54 PM,70.2,50.0,49,30.12,10.0,Calm,Calm,-,N/A,,Clear,0,2013-08-15 00:54:00
8:14 PM,69.1,50.9,52,30.12,10.0,Calm,Calm,-,N/A,,Clear,0,2013-08-15 01:14:00
8:34 PM,67.6,52.2,58,30.12,10.0,Calm,Calm,-,N/A,,Clear,0,2013-08-15 01:34:00
8:54 PM,64.4,52.0,64,30.12,10.0,Calm,Calm,-,N/A,,Clear,0,2013-08-15 01:54:00
9:14 PM,62.8,51.8,67,30.12,10.0,Calm,Calm,-,N/A,,Clear,0,2013-08-15 02:14:00
9:34 PM,61.5,52.2,71,30.13,10.0,Calm,Calm,-,N/A,,Clear,0,2013-08-15 02:34:00
9:54 PM,60.4,51.6,73,30.13,10.0,Calm,Calm,-,N/A,,Clear,0,2013-08-15 02:54:00
10:14 PM,59.4,51.3,75,30.13,10.0,Calm,Calm,-,N/A,,Clear,0,2013-08-15 03:14:00
10:34 PM,58.1,51.1,77,30.13,10.0,Calm,Calm,-,N/A,,Clear,0,2013-08-15 03:34:00
10:54 PM,57.4,51.3,80,30.13,10.0,Calm,Calm,-,N/A,,Clear,0,2013-08-15 03:54:00
11:14 PM,56.7,50.4,79,30.13,10.0,Calm,Calm,-,N/A,,Clear,0,2013-08-15 04:14:00
11:34 PM,56.1,50.9,83,30.13,10.0,Calm,Calm,-,N/A,,Clear,0,2013-08-15 04:34:00
11:54 PM,55.4,50.2,83,30.13,10.0,Calm,Calm,-,N/A,,Clear,0,2013-08-15 04:54:00